Flight Track Log - Related Links

Times and Time Zones

All times are in EDT time to prevent confusion due to time zone crossing. See the RPA3451 flight status page for this flight to view local times or setup timezone preferences in your user account.

Time Position Orientation Groundspeed Altitude Reporting Facility
EDT Latitude Longitude Course Direction KTS MPH feet Rate Location/Type
10:10AM 39.8667 -75.2667 185° South 156 180 800  Level Philadelphia TRACON
10:10AM 39.8333 -75.3000 218° Southwest 174 200 2,500 2,063 Climbing Philadelphia TRACON
10:11AM 39.8000 -75.3333 218° Southwest 223 257 4,100 2,108 Climbing Philadelphia TRACON
10:13AM 39.6278 -75.3356 181° South 266 306 9,000 2,219 Climbing Washington Center
10:14AM 39.4786 -75.3238 194° South  Level FlightAware Approximate
10:14AM 39.5444 -75.3306 177° South 285 328 11,200  Level Washington Center
10:15AM 39.3992 -75.3371 185° South  Level FlightAware Approximate
10:15AM 39.4633 -75.3361 183° South 317 365 13,100  Level Washington Center
10:16AM 39.3736 -75.3525 188° South 322 371 15,300 1,815 Climbing Washington Center
10:17AM 39.2819 -75.3689 188° South 333 383 16,700 843 Climbing Washington Center
10:18AM 39.1861 -75.3853 188° South 343 395 17,000 450 Climbing Washington Center
10:19AM 39.0903 -75.4017 188° South 348 400 17,600 1,190 Climbing Washington Center
10:20AM 38.9922 -75.4153 186° South 353 406 19,400 1,613 Climbing Washington Center
10:21AM 38.8944 -75.4289 186° South 353 406 20,800 1,400 Climbing Washington Center
10:22AM 38.7944 -75.4453 187° South 353 406 22,200 1,279 Climbing Washington Center
10:23AM 38.6922 -75.4586 186° South 364 419 23,400 1,169 Climbing Washington Center
10:24AM 38.5858 -75.4747 187° South 376 433 24,500 966 Climbing Washington Center
10:25AM 38.4817 -75.4961 189° South 382 440 25,300 800 Climbing Washington Center
10:26AM 38.3711 -75.5069 184° South 388 447 26,100 942 Climbing Washington Center
10:27AM 38.2669 -75.5786 208° Southwest 393 452 27,200 1,082 Climbing Washington Center
10:28AM 38.1836 -75.6631 219° Southwest 388 447 28,300 1,289 Climbing Washington Center
10:29AM 38.1064 -75.7369 217° Southwest 388 447 29,800 864 Climbing Washington Center
10:30AM 38.0333 -75.8081 217° Southwest 388 447 30,000 101 Climbing Washington Center
10:31AM 37.9372 -75.8944 215° Southwest 388 447 30,000  Level Washington Center
10:32AM 37.8536 -75.9731 217° Southwest 388 447 30,000 248 Level Washington Center
10:33AM 37.7614 -76.0619 217° Southwest 388 447 30,500 864 Climbing Washington Center
10:34AM 37.6756 -76.1428 217° Southwest 388 447 31,700 958 Climbing Washington Center
10:35AM 37.5958 -76.2131 215° Southwest 388 447 32,400 645 Climbing Washington Center
10:36AM 37.5100 -76.2883 215° Southwest 388 447 33,000 500 Climbing Washington Center
10:37AM 37.4219 -76.3686 216° Southwest 388 447 33,400 496 Climbing Washington Center
10:38AM 37.3358 -76.4511 217° Southwest 388 447 34,000 298 Climbing Washington Center
10:39AM 37.2414 -76.5364 216° Southwest 388 447 34,000  Level Washington Center
10:40AM 37.1553 -76.6161 216° Southwest 388 447 34,000  Level Washington Center
10:41AM 37.0669 -76.6956 216° Southwest 388 447 34,000  Level Washington Center
10:42AM 36.9786 -76.7747 216° Southwest 388 447 34,000  Level Washington Center
10:43AM 36.8900 -76.8539 216° Southwest 393 452 34,000  Level Washington Center
10:44AM 36.8036 -76.9331 216° Southwest 393 452 34,000  Level Washington Center
10:45AM 36.7131 -77.0117 215° Southwest 388 447 34,000  Level Washington Center
10:46AM 36.6264 -77.0956 218° Southwest 393 452 34,000  Level Washington Center
10:47AM 36.5400 -77.1767 217° Southwest 393 452 34,000  Level Washington Center
10:48AM 36.4553 -77.2603 218° Southwest 393 452 34,000  Level Washington Center
10:49AM 36.3686 -77.3383 216° Southwest 393 452 34,000  Level Washington Center
10:50AM 36.2839 -77.4189 217° Southwest 388 447 34,000  Level Washington Center
10:51AM 36.1972 -77.4992 217° Southwest 388 447 34,000 -300 Level Washington Center
10:52AM 36.1125 -77.5794 217° Southwest 388 447 33,400 -694 Descending Washington Center
10:53AM 36.0256 -77.6619 218° Southwest 388 447 32,600 -712 Descending Washington Center
10:54AM 35.9364 -77.7392 215° Southwest 388 447 32,000 -303 Descending Washington Center
10:55AM 35.8456 -77.8086 212° Southwest 384 442 32,000  Level Washington Center
10:56AM 35.7586 -77.8753 212° Southwest 389 448 32,000  Level Washington Center
10:57AM 35.6656 -77.9517 214° Southwest 389 448 32,000  Level Washington Center
10:58AM 35.5786 -78.0181 212° Southwest 389 448 32,000  Level Washington Center
10:59AM 35.5000 -78.0822 214° Southwest 389 448 32,000  Level Washington Center
11:00AM 35.3983 -78.1581 211° Southwest 389 448 32,000  Level Washington Center
11:01AM 35.3133 -78.2264 213° Southwest 384 442 32,000  Level Washington Center
11:02AM 35.2264 -78.2947 213° Southwest 384 442 32,000  Level Washington Center
11:03AM 35.1350 -78.3631 211° Southwest 384 442 32,000  Level Washington Center
11:04AM 35.0436 -78.4333 212° Southwest 389 448 32,000  Level Washington Center
11:05AM 34.9522 -78.5036 212° Southwest 389 448 32,000  Level Washington Center
11:06AM 34.8608 -78.5711 211° Southwest 394 453 32,000 -298 Level Washington Center
11:07AM 34.7694 -78.6411 212° Southwest 394 453 31,400 -1,263 Descending Washington Center
11:10AM 34.5853 -78.7844 213° Southwest 380 437 28,000 -1,079 Descending Jacksonville Center
11:11AM 34.5017 -78.8489 212° Southwest 380 437 28,000  Level Jacksonville Center
11:12AM 34.4183 -78.9133 213° Southwest 375 432 28,000  Level Jacksonville Center
11:13AM 34.3328 -78.9800 213° Southwest 370 426 28,000  Level Jacksonville Center
11:14AM 34.2428 -79.0344 207° Southwest 370 426 28,000 -250 Level Jacksonville Center
11:15AM 34.1439 -79.0814 201° Southwest 370 426 27,500 -700 Descending Jacksonville Center
11:16AM 34.0492 -79.1231 200° South 375 432 26,600 -1,250 Descending Jacksonville Center
11:17AM 33.9564 -79.1622 199° South 368 423 25,000 -1,300 Descending Jacksonville Center
11:18AM 33.8658 -79.2036 201° Southwest 361 415 24,000 -1,400 Descending Jacksonville Center
11:19AM 33.7794 -79.2469 203° Southwest 351 404 22,200 -1,850 Descending Jacksonville Center
11:20AM 33.6958 -79.3081 211° Southwest 339 390 20,300 -1,850 Descending Jacksonville Center
11:21AM 33.6181 -79.3611 210° Southwest 327 376 18,500 -1,750 Descending Jacksonville Center
11:22AM 33.5444 -79.4211 214° Southwest 327 376 16,800 -1,750 Descending Jacksonville Center
11:23AM 33.4708 -79.4739 211° Southwest 316 364 15,000 -1,800 Descending Jacksonville Center
11:24AM 33.3972 -79.5314 213° Southwest 316 364 13,200 -1,800 Descending Jacksonville Center
11:25AM 33.3236 -79.5864 212° Southwest 316 364 11,400 -1,300 Descending Jacksonville Center
11:26AM 33.2581 -79.6386 214° Southwest 316 364 10,600 -1,300 Descending Jacksonville Center
11:27AM 33.1925 -79.6881 212° Southwest 298 343 8,800 -1,800 Descending Jacksonville Center
11:28AM 33.1250 -79.7328 209° Southwest 287 330 7,000 -1,650 Descending Jacksonville Center
11:29AM 33.0525 -79.7600 197° South 282 325 5,500 -1,450 Descending Jacksonville Center
11:30AM 32.9794 -79.7578 179° South 269 310 4,100 -1,300 Descending Jacksonville Center
11:31AM 32.9064 -79.7578 180° South 269 310 2,900 -750 Descending Jacksonville Center
11:32AM 32.8508 -79.7967 210° Southwest 231 266 2,600 -450 Descending Jacksonville Center
11:33AM 32.8125 -79.8500 229° Southwest 220 253 2,000 -600 Descending Jacksonville Center

Login

Don't have an account? Register now (free) for customized features, flight alerts, and more!